World > North America > United States > Ohio

Hourly Lemon, OH Regional Weather

Feedback E-mail the Weather

Quick WX

Lemon, OH Weather Maps

°F °C°F °C
Lemon Weather Map
UTC Time: 7/2/2022, 02:18
Your Time:

Lemon, OH Regional Weather

Expires:202207020300;;526060
ASUS41 KCLE 020212
RWRCLE
OHIO REGIONAL WEATHER ROUNDUP
NATIONAL WEATHER SERVICE WILMINGTON, OH
1000 PM EDT FRI JUL 01 2022

NOTE: "FAIR" INDICATES FEW OR NO CLOUDS BELOW 12,000 FEET WITH NO
SIGNIFICANT WEATHER AND/OR OBSTRUCTIONS TO VISIBILITY.


OHZ042-051>053-060>062-070>072-077>081-020300-
  SOUTHWEST OHIO
  
CITY           SKY/WX    TMP DP  RH WIND       PRES   REMARKS
CINC-COVINGTON MOCLDY    80  72  76 W5        29.98R                  
CINC-LUNKEN    FAIR      83  70  64 W5        29.97R                  
HAMILTON       FAIR      76  70  82 NW8       29.99R                  
DAYTON         CLOUDY    76  68  76 S7        30.01R THUNDER          
WRIGHT-PAT AFB NOT AVBL                                               
DAYTON GENERAL LGT RAIN  75  68  78 N12       29.99R                  
WILMINGTON     MOCLDY    83  69  62 W8        29.99R                  
$$


SKY/WX - Weather  TMP - Temperature  DP - Dew Point  RH - Humidity
WIND - Wind Direction/Speed PRES - Barometric Pressure VSB - Visibility
WCI - Wind Chill Index E13G22 Wind - East Wind 13 mph/Gusts of 22 mph

Trending Headlines

Lemon Radar Loop



Lemon Quick Facts


National Two Day Weather Forecast


E-mail the Lemon Weather Forecast

Voice your opinion or tell us about page issues...